GW2593 Weather Reports


time (UTC)temp
C
wind
direction
speed
KPH
gust
KPH
rain 1hr
cm
rain 24hr
cm
rain mn
cm
humidity
%
barometer
mb
20260505221701 22 0.0 0.0 0.00 0.00 0.00 70 1019.2
20260505214656 23 0.0 0.0 0.00 0.00 0.00 68 1018.8
20260505211656 24 0.0 0.0 0.00 0.00 0.00 67 1019.3
20260505204656 25 0.0 0.0 0.00 0.00 0.00 66 1019.1
20260505201654 25 0.0 0.0 0.00 0.00 0.00 64 1019.1
20260505194654 24 0.0 0.0 0.00 0.00 0.00 64 1019.6
20260505191650 25 0.0 0.0 0.00 0.00 0.00 64 1019.8
20260505184651 25 0.0 0.0 0.00 0.00 0.00 62 1020.2
20260505181649 25 0.0 0.0 0.00 0.00 0.00 65 1020.4
20260505174647 25 0.0 0.0 0.00 0.00 0.00 63 1020.4
20260505171643 25 0.0 0.0 0.00 0.00 0.00 62 1020.6
20260505164643 25 0.0 0.0 0.00 0.00 0.00 62 1020.7
20260505161640 25 0.0 0.0 0.00 0.00 0.00 63 1020.9
20260505151634 25 0.0 0.0 0.00 0.00 0.00 65 1021.1
20260505124618 23 0.0 0.0 0.00 0.00 0.00 73 1020.5
20260505121616 22 0.0 0.0 0.00 0.00 0.00 77 1020.3
20260505114612 20 0.0 0.0 0.00 0.00 0.00 85 1020.2
20260505111607 18 0.0 0.0 0.00 0.00 0.00 85 1019.9
20260505101601 18 0.0 0.0 0.00 0.00 0.00 85 1018.9
20260505094556 18 0.0 0.0 0.00 0.00 0.00 84 1018.7
20260505091555 18 0.0 0.0 0.00 0.00 0.00 84 1018.7
20260505084554 18 0.0 0.0 0.00 0.00 0.00 84 1018.4
20260505081552 18 0.0 0.0 0.00 0.00 0.00 83 1018.4
20260505074549 19 0.0 0.0 0.00 0.00 0.00 82 1018.3
20260505071547 19 0.0 0.0 0.00 0.00 0.00 80 1018.4
20260505064545 19 0.0 0.0 0.00 0.00 0.00 79 1018.5
20260505061540 19 0.0 0.0 0.00 0.00 0.00 78 1018.8
20260505054539 19 0.0 0.0 0.00 0.00 0.00 77 1019.0
20260505051533 19 0.0 0.0 0.00 0.00 0.00 76 1019.3
20260505041525 19 0.0 0.0 0.00 0.00 0.00 75 1019.5
20260505034524 19 0.0 0.0 0.00 0.00 0.00 74 1019.4
20260505031519 20 0.0 0.0 0.00 0.00 0.00 73 1019.5
20260505024517 20 0.0 0.0 0.00 0.00 0.00 71 1019.5
20260505021512 20 0.0 0.0 0.00 0.00 0.00 70 1019.6
20260505014508 20 0.0 0.0 0.00 0.00 0.00 69 1019.3
20260505011508 20 0.0 0.0 0.00 0.00 0.00 70 1019.1
20260505004505 20 0.0 0.0 0.00 0.00 0.00 69 1018.7
20260505001505 20 0.0 0.0 0.00 0.00 0.00 67 1018.6
20260504234504 20 0.0 0.0 0.00 0.00 0.00 67 1018.4
20260504231502 20 0.0 0.0 0.00 0.00 0.00 65 1018.5
20260504224501 21 0.0 0.0 0.00 0.00 0.00 66 1018.4